Snowfall_Accumulation
0.7 0.1 0.1 0.2 0.0 0.0 0.0 0.0 0.0 0.0 0.0 0.0 0.0 0.0 0.0 0.0 0.0 0.0 0.0 0.0 0.0 0.0 0.0 0.0 0.0 0.0 0.0 0.1 0.2 0.3 0.4 0.8 1.3 0.1 0.0 0.0 0.0 0.0 0.0 0.0 0.0 0.1 0.1
2.8 2.3 2.3 2.9 1.6 1.7 1.6 0.3 0.1 0.0 0.3 0.1 0.0 0.0 0.0 0.0 0.0 0.0 0.0 0.0 0.0 0.1 0.0 0.1 0.1 0.0 0.0 0.0 0.2 0.2 0.2 0.3 1.3 0.7 0.0 0.0 0.2 0.2 0.0 0.0 0.1 0.3 0.6
4.7 3.8 3.3 2.8 1.7 1.7 2.4 2.9 0.0 1.0 0.0 1.3 0.6 0.4 0.3 0.4 0.1 0.0 0.0 0.0 0.1 0.2 0.2 0.3 0.2 0.0 0.1 0.0 0.1 0.3 0.3 0.3 0.8 1.0 0.6 0.2 0.2 0.2 0.2 0.0 0.2 0.4 0.6
5.7 5.2 5.2 5.0 3.4 2.2 1.9 2.3 1.6 3.0 3.1 3.9 3.7 2.3 2.2 1.0 0.8 0.1 0.1 0.1 0.1 0.2 0.2 0.3 0.4 0.5 0.8 0.5 0.2 0.3 0.3 0.2 0.5 0.7 0.6 0.5 0.2 0.0 0.1 0.3 0.2 0.6 2.3
5.8 4.5 3.7 4.3 5.8 3.7 2.8 3.4 4.2 3.7 3.1 2.9 2.5 2.4 3.8 3.5 3.3 2.3 1.4 1.3 1.6 0.7 0.7 0.5 0.8 0.9 0.7 0.7 0.6 0.5 0.3 0.2 0.4 0.4 0.3 0.3 0.2 0.2 0.3 0.5 0.7 0.3 0.0
1.8 1.6 2.7 0.8 2.7 3.1 1.7 1.9 1.7 1.6 2.1 3.2 3.8 2.8 4.9 5.2 5.0 4.1 3.0 2.6 2.0 1.9 2.0 1.6 1.3 0.6 0.7 0.3 0.5 0.5 0.5 1.2 1.4 1.0 1.0 1.1 0.6 0.7 0.5 0.7 1.0 1.4 1.1
0.2 0.4 0.1 0.0 0.0 0.0 0.7 1.0 0.0 0.4 0.8 5.2 6.5 7.6 2.2 5.0 5.1 4.7 5.4 3.7 3.1 2.8 2.8 2.3 2.1 2.9 1.9 0.9 0.9 0.8 0.6 0.5 1.0 2.2 2.7 2.3 1.8 1.6 1.9 2.5 1.9 2.6 2.4
0.0 0.0 0.0 0.2 0.0 0.0 0.0 0.0 0.0 0.0 0.0 0.0 0.6 0.0 1.0 1.5 2.6 8.1 4.3 10.1 6.3 4.0 3.0 3.0 3.1 3.3 2.5 2.6 3.3 3.3 1.9 1.4 2.1 2.9 2.0 2.3 3.2 2.3 1.4 1.3 1.9 1.7 0.9
0.1 0.1 0.0 0.1 0.0 0.0 0.0 0.0 0.0 0.0 0.0 0.0 0.0 0.0 0.0 0.6 0.2 0.0 1.1 2.1 1.4 2.2 3.9 3.6 3.1 3.2 3.4 4.6 3.9 4.6 4.5 4.8 3.3 2.7 2.7 2.1 2.8 0.9 0.3 2.9 3.5 3.8 3.1
0.3 0.2 0.0 0.1 0.0 0.0 0.0 0.0 0.5 0.4 0.0 0.8 0.8 0.2 0.0 0.2 0.2 0.2 0.1 0.2 0.3 1.1 1.5 1.7 3.2 4.0 3.5 2.3 5.4 5.7 6.8 4.0 5.2 6.3 5.2 2.1 1.2 2.8 1.7 3.9 7.0 10.4 9.1
3.5 2.4 0.0 0.0 0.2 0.0 0.0 0.0 0.3 0.4 0.8 1.0 0.8 0.3 0.1 0.1 0.1 0.0 0.0 0.1 0.8 0.9 0.6 0.8 1.0 2.7 2.0 1.7 2.0 3.2 4.3 4.6 4.9 7.6 8.1 6.6 9.9 5.3 4.9 6.4 7.1 10.7 10.2
8.0 8.2 3.0 0.0 1.6 0.2 0.0 0.1 0.3 0.3 0.4 0.5 0.6 0.5 0.2 0.1 0.1 0.1 0.1 0.0 0.3 1.6 1.1 1.4 2.4 0.9 1.3 0.5 1.0 3.5 4.6 5.0 6.4 9.6 9.8 9.3 12.3 11.3 11.7 11.2 10.2 9.9 10.4
7.3 9.4 4.6 6.0 2.0 2.3 0.1 0.4 0.5 0.4 0.6 0.6 0.4 0.3 0.1 0.1 0.1 0.2 0.1 0.2 0.2 1.0 2.2 3.2 2.3 4.6 3.5 5.9 6.7 12.0 10.8 14.9 17.0 16.6 14.8 12.8 10.1 7.7 5.0 4.7 4.7 3.5 5.1
5.8 6.3 8.7 6.0 8.3 9.7 4.0 5.6 2.2 2.8 0.9 1.2 0.5 0.5 0.2 0.1 0.2 0.2 1.3 1.3 2.5 3.2 8.4 15.5 14.3 21.5 20.3 20.8 20.5 19.4 18.1 16.2 14.3 12.2 9.2 6.8 5.1 4.3 4.8 4.3 6.1 4.6 4.7
2.4 2.5 3.4 5.4 7.8 8.8 12.9 16.7 16.7 17.1 5.5 6.5 7.7 4.2 5.3 3.9 4.7 12.9 16.0 9.4 17.2 13.2 12.3 19.6 18.5 16.2 14.1 12.2 10.1 8.1 6.8 5.2 4.6 3.4 3.8 3.0 2.0 3.2 3.3 2.5 3.3 3.6 4.6
1.0 1.3 2.2 2.7 3.9 5.5 8.2 11.0 14.1 18.5 20.1 24.3 19.5 23.5 26.0 22.8 23.9 19.5 19.5 19.9 16.5 14.7 12.5 10.9 8.8 7.4 5.8 3.9 5.0 2.1 2.0 2.6 1.6 3.6 3.3 2.2 2.7 3.2 4.7 3.5 3.6 4.1 3.8
0.4 0.4 2.5 3.1 4.0 5.4 5.3 7.1 10.0 21.2 24.8 28.9 29.8 29.6 29.7 30.3 27.3 28.1 26.9 24.7 23.1 17.2 19.3 13.6 13.2 9.6 8.8 7.4 7.0 5.0 5.5 4.5 4.2 5.6 5.4 5.8 5.4 4.4 5.7 4.9 4.5 3.4 2.8
0.1 4.3 10.2 14.5 15.4 15.8 15.9 18.4 18.6 18.9 18.5 19.6 19.4 18.3 17.8 17.4 16.6 16.5 17.0 15.0 18.8 17.7 17.6 17.0 17.3 16.9 16.0 15.3 12.8 12.3 11.4 9.0 8.9 8.0 6.6 6.2 6.5 7.3 6.5 6.0 9.1 7.0 6.2
7.3 8.9 10.0 10.1 9.5 8.2 7.3 8.3 8.3 8.3 9.5 10.0 8.9 7.8 8.4 8.0 6.8 6.7 6.0 8.0 10.2 11.3 12.8 12.0 13.1 13.1 13.1 13.1 13.4 13.7 13.8 14.1 13.1 12.9 12.2 12.4 12.2 11.2 10.4 10.2 9.9 9.0 7.9
7.3 7.7 7.1 6.9 7.2 6.5 5.3 4.4 4.4 3.6 3.5 3.5 4.1 4.9 3.8 2.6 2.4 3.2 4.0 5.6 6.1 6.1 7.2 7.8 8.3 8.0 8.1 9.0 9.4 9.9 9.8 10.0 10.6 11.0 11.2 10.3 11.4 11.5 11.6 10.8 10.5 10.3 8.8
7.7 7.1 5.6 5.1 4.6 4.0 3.1 2.8 2.3 2.5 2.1 1.6 1.4 0.9 1.0 1.8 2.7 2.8 3.2 3.9 3.9 4.0 4.8 5.0 5.3 5.1 5.1 5.8 5.7 5.9 6.0 6.3 6.4 7.3 7.9 8.3 8.5 9.4 8.4 9.3 8.9 7.5 6.4
5.0 4.1 3.7 3.9 3.1 2.5 2.0 1.6 1.4 1.5 1.0 1.2 1.6 0.8 1.6 1.9 1.8 1.6 1.5 2.1 2.1 2.1 2.7 3.5 3.7 3.7 4.0 4.7 4.9 4.9 4.6 4.5 4.6 5.5 5.5 5.6 6.0 6.4 6.7 6.5 6.4 6.6 5.4
3.2 3.3 2.8 2.8 2.5 1.6 1.8 1.2 2.2 2.0 1.8 1.5 1.5 1.7 1.5 1.9 1.7 1.4 1.4 1.5 1.3 1.3 1.2 2.5 2.3 1.8 1.7 2.3 2.9 4.2 4.5 4.1 4.3 4.5 4.6 4.3 4.1 4.6 5.3 5.4 5.2 5.7 5.3
1.5 1.6 1.7 1.3 1.7 1.2 1.7 1.6 1.6 2.6 3.0 2.2 1.8 1.8 1.9 2.1 2.1 1.9 1.3 0.9 0.8 0.9 1.4 1.6 1.7 1.5 1.2 1.1 1.7 2.3 2.5 2.4 3.0 3.5 4.7 4.2 3.4 3.1 4.0 4.2 4.3 4.5 4.6
1.1 1.2 1.7 1.4 2.1 2.6 2.9 3.0 2.6 1.4 2.0 2.2 2.0 1.8 1.2 1.4 1.4 1.8 1.6 1.5 1.2 1.5 1.8 1.2 1.2 1.2 1.5 2.0 2.7 2.3 1.6 2.3 3.1 3.2 4.0 3.6 3.0 2.3 3.4 3.8 3.6 3.8 3.6
1.3 1.7 1.7 1.9 2.0 2.5 2.7 2.5 2.1 1.5 1.4 1.5 1.7 1.5 1.6 1.6 1.4 1.7 1.9 1.8 1.8 2.5 2.8 2.9 3.1 2.7 2.5 2.8 2.9 2.7 2.2 2.6 3.1 3.8 4.3 3.8 2.8 2.1 2.4 2.9 3.1 3.6 3.2